Powrót do katalogu

COSMOS 2476

GLONASS

AktywnyNawigacjaMEO
NORAD 37867·PAYLOAD·🇷🇺 Russia

Wystrzelony Nov 4, 2011 z Baikonur Cosmodrome

Loading…

Następne Przeloty (najbliższe 24 godziny)

TLE

ŚwieżeSource: CelesTrak SupGP

Epoka: Sep 14, 2026, 23:59 UTC

1 37867C 11064A   26257.99979167  .00000000  00000+0  00000+0 0  2577
2 37867  65.3262  69.8419 0022789 230.4715  75.6608  2.13103840    19

Śledź COSMOS 2476 w czasie rzeczywistym z AllMySat

Download on the App Store